Dewpoint
49 49 49 49 50 49 44 34 23 42 33 12 17 9 14 19 17 24 19 15 10 7 6 5 6 3 5 16 11 3 7 2 2 9 20 20 18 13 8 -3 -3 10 5 -4
49 48 48 48 49 48 40 32 30 41 33 11 9 16 16 20 17 18 15 13 14 12 7 5 9 13 19 17 11 5 11 -1 -4 6 16 20 18 15 14 13 14 4 -2 -2
47 47 47 47 48 48 38 28 19 24 26 22 13 13 12 12 22 19 18 15 16 11 11 12 13 16 19 20 17 25 11 4 0 -2 2 17 14 19 14 9 4 5 5 3
45 45 45 46 47 47 35 27 18 25 14 17 17 16 15 14 14 19 19 15 13 11 10 12 11 18 22 21 26 20 15 6 8 8 8 18 15 14 18 11 8 7 10 10
43 44 44 45 45 45 34 29 25 23 21 25 21 21 17 14 15 16 16 13 13 13 10 10 10 15 18 17 23 17 18 11 12 12 14 15 14 15 18 17 15 12 12 13
41 42 42 42 43 43 35 36 37 30 19 23 19 16 15 17 18 20 17 17 18 15 14 16 17 18 19 19 18 16 16 14 14 11 17 19 15 16 15 17 19 18 15 17
41 40 41 41 41 41 41 38 37 28 20 20 19 20 19 20 21 17 22 20 18 21 27 26 25 24 23 22 21 19 17 14 16 14 16 8 11 20 20 18 19 20 20 21
39 39 39 39 38 38 41 40 38 32 25 22 21 21 22 23 24 24 23 24 25 27 25 19 18 18 18 23 24 23 20 18 17 15 14 15 16 18 19 19 19 24 22 28
37 37 37 37 37 36 38 43 41 36 31 27 26 24 24 21 21 23 25 29 29 28 24 20 17 13 14 13 23 25 23 22 19 19 15 10 16 22 23 22 17 27 28 29
36 36 36 36 35 35 36 41 42 39 34 33 32 28 27 28 26 23 27 28 27 28 24 21 19 17 17 13 14 19 22 21 19 19 18 20 22 25 25 17 19 30 30 30
35 35 35 35 34 34 36 33 39 37 35 36 35 35 33 33 32 27 28 28 28 27 24 23 22 22 20 19 19 20 18 19 20 20 19 17 31 26 21 27 31 31 31 30
36 35 34 34 34 34 36 27 32 37 35 34 41 40 39 36 35 34 32 29 29 29 26 26 26 24 24 22 19 23 19 21 21 22 23 31 33 32 34 34 32 32 31 31
37 37 36 34 34 34 35 35 35 37 31 28 32 28 37 39 39 39 35 35 34 32 35 29 28 27 28 24 25 22 22 24 23 26 30 31 32 32 32 32 31 32 31 27
33 34 38 39 38 36 35 35 35 37 33 25 25 30 32 28 35 33 38 39 40 39 38 32 31 29 33 29 29 28 30 32 31 31 30 29 29 30 30 30 27 25 25 25
35 33 33 34 33 34 36 35 38 38 33 23 25 29 28 33 35 35 36 38 37 35 31 30 29 32 32 32 31 28 29 28 29 27 30 28 26 28 25 24 24 24 23 23
34 34 33 34 33 33 32 24 36 36 32 26 21 28 29 31 33 35 35 35 36 33 31 31 32 34 32 27 24 24 27 28 30 26 28 28 28 26 25 23 23 24 24 24
33 33 32 32 33 33 29 21 31 37 36 26 21 19 25 31 33 35 35 36 36 33 31 30 30 31 31 25 18 24 26 27 28 29 28 25 25 22 24 24 24 25 23 22
32 33 33 31 33 33 31 35 36 37 32 28 18 19 20 29 28 28 32 31 32 32 31 31 29 28 25 18 23 26 27 24 24 25 24 24 24 23 22 22 20 17 16 18
32 33 31 32 30 28 31 34 37 36 31 23 22 15 14 28 27 27 28 28 24 28 26 26 26 19 14 19 20 22 23 22 21 22 21 20 17 17 17 17 17 17 17 18
31 26 21 23 27 33 33 32 28 27 28 27 22 25 21 25 24 24 24 25 22 19 21 25 18 16 22 23 24 23 23 20 18 12 13 16 15 16 16 16 17 17 17 18
27 24 22 28 27 24 21 19 19 22 18 23 22 21 20 27 21 21 22 19 20 16 17 18 15 14 20 25 25 24 17 16 15 16 16 16 17 16 17 17 18 18 18 18
30 29 25 19 14 13 13 11 15 17 16 21 18 19 22 24 22 21 18 17 17 12 17 14 11 17 22 20 18 16 16 16 16 17 17 18 18 18 18 18 18 19 19 19
22 16 11 8 10 10 10 9 12 14 19 20 18 15 18 17 16 12 11 10 11 14 11 11 15 18 16 16 16 16 16 17 17 17 18 18 17 18 18 18 18 19 19 19
16 12 8 9 11 14 15 16 17 21 21 20 17 16 13 12 13 9 8 10 8 9 7 9 15 14 15 16 16 16 16 17 17 18 18 17 18 18 18 18 18 18 18 18
16 11 10 13 17 18 18 18 19 21 21 16 14 11 10 9 9 9 6 6 7 10 10 15 14 15 15 16 16 16 17 17 17 17 17 17 17 17 17 17 17 18 17 18
15 14 13 17 17 15 17 17 18 20 19 15 10 6 8 8 7 7 5 4 6 12 15 15 15 15 15 16 16 16 17 17 17 17 17 17 17 16 16 16 16 16 16 17
15 16 20 19 18 18 18 18 19 20 18 15 11 9 8 6 6 8 8 10 13 16 15 15 16 16 15 15 15 16 16 16 16 16 16 16 16 16 15 14 15 15 15 15
Wind_Speed
24 27 29 30 29 23 3 0 4 4 3 3 2 5 6 6 5 2 3 2 3 5 6 4 6 8 5 3 4 4 1 5 4 2 0 1 1 3 7 5 5 3 2 10
23 27 30 30 30 21 3 2 2 2 2 5 6 3 3 6 6 6 5 3 3 2 6 3 3 3 1 5 6 6 7 1 3 1 0 1 5 6 5 6 4 11 6 9
25 27 29 30 31 25 2 2 3 0 1 1 3 6 6 6 6 4 5 5 4 1 2 2 7 7 4 3 3 4 4 4 6 6 3 6 5 8 12 8 7 8 19 18
24 26 29 31 32 26 2 4 3 1 3 4 4 4 7 7 7 5 7 4 10 9 6 3 3 1 1 2 2 2 3 5 5 10 8 7 8 12 18 23 23 17 27 18
22 24 26 29 33 26 5 5 5 4 3 1 3 2 6 10 4 9 6 8 8 10 6 8 10 11 6 5 3 6 3 3 5 7 8 13 14 23 19 29 22 22 22 29
20 21 23 26 29 17 5 1 1 1 3 1 4 5 5 6 5 6 2 10 7 9 14 7 2 5 4 6 11 13 7 6 4 8 1 1 10 28 25 11 11 13 20 16
18 20 22 24 24 19 2 1 2 1 6 5 7 3 4 6 7 2 2 6 5 3 8 7 5 3 2 5 8 6 9 8 7 6 2 13 4 2 5 19 11 18 7 3
18 19 20 22 23 23 3 1 2 2 6 6 10 10 7 3 3 4 5 6 2 8 4 1 3 2 2 2 0 11 5 8 4 5 9 10 10 4 6 7 4 4 10 11
15 16 18 20 22 23 6 2 0 2 3 9 5 4 4 7 6 3 5 2 3 3 4 4 8 9 6 6 3 6 7 2 10 5 8 12 3 4 3 6 7 4 11 11
15 15 15 16 19 21 12 3 7 3 4 4 2 5 3 2 1 2 1 4 4 2 7 11 10 12 5 10 12 9 7 5 21 18 12 9 4 1 1 6 5 8 10 8
14 15 14 13 14 17 10 7 9 5 6 8 4 2 2 3 1 4 2 2 1 3 9 10 9 11 16 7 7 12 17 15 11 8 10 16 3 3 7 6 6 10 8 8
17 14 14 13 12 12 8 4 7 6 5 7 6 9 9 6 7 4 5 3 3 6 7 6 4 5 5 6 9 3 9 8 9 12 8 3 4 9 6 5 8 5 8 6
15 17 18 14 13 11 6 4 6 4 5 12 5 8 2 3 1 2 6 4 3 2 0 4 4 7 5 10 10 8 5 4 4 7 4 7 7 7 6 7 10 9 10 8
15 12 10 13 14 14 11 5 3 4 5 5 4 3 3 7 4 6 6 7 4 1 4 7 7 5 9 5 3 5 3 4 6 5 7 13 11 8 10 13 13 11 8 5
17 16 15 13 12 13 10 3 2 2 4 4 8 10 3 3 6 6 10 11 7 6 6 6 6 3 5 3 6 4 1 1 5 3 5 9 8 10 11 12 9 7 6 3
18 17 15 15 14 11 4 2 5 7 2 4 6 2 3 4 8 3 5 11 8 4 4 0 2 2 1 3 3 8 7 11 6 6 16 19 14 8 5 6 5 4 3 2
17 18 16 17 16 5 4 4 1 7 3 3 6 5 2 5 4 2 1 4 3 1 2 1 2 0 2 5 5 6 14 18 16 11 12 12 5 4 3 3 3 3 3 4
17 19 18 18 14 6 5 3 5 4 2 4 3 5 5 7 5 4 5 1 1 3 1 1 2 5 6 8 11 12 13 15 18 14 12 9 6 6 6 4 4 7 8 8
19 17 11 3 3 2 4 15 6 2 3 2 3 3 4 9 8 4 4 3 3 2 4 4 5 7 9 8 16 17 18 11 7 5 9 8 9 7 7 7 8 8 11 11
11 5 3 1 2 14 7 2 1 2 2 2 2 5 3 5 5 6 6 5 4 3 4 3 7 7 8 10 10 9 8 9 10 11 12 13 13 12 11 10 9 10 13 15
4 6 3 5 12 3 4 1 2 0 1 2 3 3 4 7 3 2 4 1 3 2 5 4 5 4 3 2 5 7 7 8 8 6 4 5 6 11 13 15 14 14 15 15
1 3 2 4 7 3 2 2 4 4 3 5 5 5 4 4 3 3 6 2 3 3 7 5 4 2 5 9 9 9 10 10 10 9 11 11 10 10 12 13 14 14 14 15
2 3 2 5 5 7 4 4 4 3 4 6 6 4 4 5 8 5 4 4 3 3 5 4 4 6 9 10 12 14 13 13 14 14 14 14 13 12 11 15 14 14 15 15
3 3 4 4 4 4 3 4 4 3 3 6 4 2 5 4 5 3 5 3 2 4 4 4 6 7 11 12 11 11 14 13 12 13 12 13 12 13 13 13 14 15 16 15
2 3 3 4 2 2 3 3 2 5 4 4 2 4 4 7 4 5 2 4 5 5 3 3 8 11 12 13 12 12 12 12 13 12 12 12 12 12 13 12 13 14 14 14
3 4 3 2 3 5 5 7 6 7 5 1 5 3 4 6 3 5 4 3 4 3 4 7 11 12 12 12 12 12 13 13 14 13 13 13 12 13 14 15 14 14 14 16
3 3 4 3 3 3 3 4 7 8 3 4 3 5 2 0 4 4 3 4 4 7 9 8 9 10 12 12 13 13 14 14 13 14 14 14 14 14 14 14 15 13 15 15
Wind_Direction
5 3 2 359 357 353 31 179 261 2 335 143 127 184 190 168 184 204 262 223 179 185 181 167 174 187 213 181 172 170 160 116 159 182 131 131 167 184 172 201 219 194 186 269
11 7 4 2 360 359 332 256 242 11 58 228 205 178 189 195 179 194 179 221 249 206 176 172 181 181 158 171 170 170 176 145 146 26 315 345 217 197 169 118 116 223 210 253
8 7 5 3 359 357 346 289 265 251 71 268 187 181 192 195 201 192 188 172 145 155 248 270 180 165 167 167 153 120 148 163 206 211 150 136 193 208 197 175 207 209 225 244
10 6 5 2 358 356 4 9 286 294 256 253 230 192 188 182 194 212 180 207 216 173 180 191 231 188 89 18 52 81 113 237 213 259 237 204 225 225 198 205 219 219 259 233
10 8 7 7 2 351 74 347 348 350 294 274 195 231 222 215 191 171 213 218 199 200 204 188 193 174 193 203 178 179 178 207 183 264 230 219 248 250 220 223 234 243 264 272
12 9 10 10 12 11 26 10 245 312 297 250 186 222 230 237 193 202 201 193 154 205 232 225 287 186 143 167 169 187 177 176 149 256 313 351 275 248 232 211 208 218 242 250
16 12 11 11 12 21 248 315 326 291 270 231 227 265 222 226 218 235 180 170 178 166 119 111 97 99 198 196 202 163 168 167 187 257 226 260 248 168 192 211 228 221 228 197
7 9 10 9 7 7 344 338 334 255 257 248 271 248 242 244 221 221 225 212 182 145 102 63 299 282 266 199 102 216 185 170 222 247 221 301 292 210 183 200 245 227 165 124
1 7 9 8 5 4 355 296 221 249 252 242 274 268 228 243 226 230 201 97 133 105 144 160 217 229 215 224 183 32 179 234 209 167 244 263 193 148 150 136 265 127 138 124
355 357 5 8 6 4 356 309 2 264 246 271 274 237 237 171 211 231 206 167 168 147 181 204 218 238 204 225 214 189 154 189 219 222 248 277 249 189 81 203 240 125 120 108
345 344 349 359 4 5 11 297 18 15 305 290 262 275 295 331 251 218 153 130 205 160 199 205 209 217 212 215 190 187 196 191 198 194 230 271 13 149 204 138 105 125 117 122
332 332 335 343 349 359 21 328 324 327 236 291 312 275 266 246 236 217 218 245 199 218 198 217 212 210 188 193 228 195 221 211 192 193 216 110 41 107 93 95 133 122 122 104
336 335 329 331 333 340 6 304 315 318 277 282 278 279 332 80 285 246 237 225 249 215 176 183 188 235 168 202 221 200 203 175 182 181 189 153 118 80 82 91 107 106 115 121
316 325 336 332 329 326 338 311 247 258 260 274 290 348 303 326 314 248 223 268 249 182 215 228 217 216 195 204 186 196 176 154 185 198 127 100 75 92 105 99 100 104 106 115
329 323 320 309 312 322 328 269 242 283 263 269 291 307 273 300 332 293 226 230 247 228 193 208 218 193 185 193 175 172 3 171 198 183 93 99 104 96 109 118 117 110 108 98
328 328 322 313 312 321 334 321 120 82 64 355 312 275 255 322 337 284 212 213 232 238 185 270 239 37 147 190 104 25 55 56 60 97 77 93 105 111 62 86 75 70 48 10
319 324 320 314 314 307 242 246 233 267 175 267 298 292 305 329 316 273 234 203 173 189 54 260 76 121 101 35 62 51 58 68 63 65 102 89 103 121 55 83 46 15 356 331
313 317 318 313 308 302 274 286 358 25 182 243 269 284 316 10 349 353 352 25 100 98 176 147 59 44 59 62 55 61 59 51 42 40 59 92 95 67 50 40 24 2 341 326
320 321 321 336 32 350 307 312 356 132 283 217 223 245 298 350 9 348 350 357 54 335 52 42 48 39 48 28 64 59 50 46 20 65 77 65 53 33 19 5 355 337 322 313
330 10 10 336 334 312 316 56 319 46 10 288 298 341 286 1 352 9 6 11 28 40 52 342 69 71 72 67 80 69 42 37 29 36 15 360 354 352 346 338 326 316 313 312
16 7 329 305 321 22 34 47 65 136 99 8 346 349 334 14 359 11 30 33 25 134 9 47 75 62 57 18 359 9 37 34 35 36 23 2 338 336 335 331 326 323 320 315
3 316 22 349 25 39 67 14 337 27 44 9 351 335 337 351 337 30 9 59 33 75 337 73 81 73 11 26 23 21 22 14 15 14 2 354 346 336 325 316 309 308 304 306
55 42 29 9 345 38 41 17 3 24 15 355 344 345 350 355 24 62 31 55 55 316 55 69 68 27 20 11 2 358 5 6 359 351 349 341 331 327 321 316 312 311 308 305
46 24 9 36 20 39 35 16 39 10 338 350 349 16 31 359 38 10 64 16 12 61 61 77 40 9 353 359 1 1 347 344 339 331 323 316 313 309 307 303 305 308 306 305
55 34 40 38 352 8 338 319 7 354 328 355 13 52 26 21 59 32 76 48 56 48 67 56 359 353 353 346 345 338 332 327 322 316 313 312 309 308 306 306 304 302 301 301
59 51 61 349 61 51 29 17 9 5 349 63 45 57 55 38 33 47 40 73 51 55 19 345 344 341 334 330 331 328 328 326 323 324 324 318 318 318 314 310 309 307 305 303
41 29 20 18 55 46 35 355 349 329 6 29 34 48 55 347 52 49 26 51 33 336 335 331 323 323 326 327 328 330 328 326 324 322 321 316 313 314 316 315 314 311 306 301